Regional Weather Roundup
Issued by NWS Wakefield, VA

Home | Current Version | Previous Version | Text Only | Print | Product List | Glossary On
Versions: 1 2 3 4 5 6 7 8 9 10 11 12 13 14 15 16 17 18 19 20 21 22 23 24 25 26 27 28 29 30 31 32 33 34 35 36 37 38 39 40 41 42 43 44 45 46 47 48 49 50
000
ASUS41 KAKQ 061615
RWRAKQ

REGIONAL WEATHER ROUNDUP
NATIONAL WEATHER SERVICE WAKEFIELD VA
1200 PM EDT FRI MAY 06 2016

Note: "fair" indicates few or no clouds below 12,000 feet with no
significant weather and/or obstructions to visibility. * = Denotes
station may not report precipitation (e.g., rain,snow,etc.),
thunder or fog.

VAZ042-051-052>054-056-061700-
NORTHERN VIRGINIA

CITY           SKY/WX    TMP DP  RH WIND       PRES   REMARKS
WASH NATIONAL  LGT RAIN  55  52  89 NW13      29.69S
DULLES         LGT RAIN  54  51  90 NW10      29.69F FOG
FORT BELVOIR   LGT RAIN  55  51  87 NW7       29.68F
QUANTICO       LGT RAIN  56  52  86 N8        29.70S
FREDERICKSBRG* RAIN      55  55 100 NW7       29.70S
STAFFORD*      LGT RAIN  55  52  90 NW8       29.74S
WARRENTON      LGT RAIN  55  49  80 NW8       29.70F
CULPEPER*      LGT RAIN  55  53  92 NW6       29.72S
MANASSAS*      LGT RAIN  55  55 100 N8G16     29.70S
LEESBURG*      LGT RAIN  54  54 100 NW8       29.70F
WINCHESTER     LGT RAIN  54  50  87 NW7       29.72S
FRONT ROYAL*   CLOUDY    52  50  93 NW3       29.71S
LURAY*         CLOUDY    54  50  87 CALM      29.73S
$$

VAZ048-049-060>072-079>083-061700-
CENTRAL AND SOUTH CENTRAL VIRGINIA

CITY           SKY/WX    TMP DP  RH WIND       PRES   REMARKS
RICHMOND       HVY RAIN  51  51 100 SE5       29.70R FOG
CHESTERFIELD*  CLOUDY    55  43  62 NW9       29.71S
PETERSBURG*    LGT RAIN  57  56  99 N9        29.71S
HANOVER        LGT RAIN  54  51  90 N6        29.71S
TAPPAHANNOCK*  RAIN      52  51  98 SE3       29.70S
QUINTON*       CLOUDY    52  51  96 W6        29.69S
CHARLOTTSVILLE LGT RAIN  56  51  84 VRB5      29.72S
GORDONSVILLE*  CLOUDY    55  52  90 N6        29.72S
ORANGE*        LGT RAIN  55  54  94 SW5       29.73S
LOUISA*        DRIZZLE   57  55  94 NW7       29.70S
BUMPASS*       CLOUDY    55  51  89 N5        29.71S
FARMVILLE*     LGT RAIN  56  55  95 N5        29.72S
CREWE*         CLOUDY    54  54 100 NW12      29.72S
FORT PICKETT*  NOT AVBL
CHASE CITY*    CLOUDY    55  53  93 NW9       29.74S
CLARKSVILLE*   CLOUDY    59  52  77 N10G17    29.74R
SOUTH HILL*    CLOUDY    55  52  89 NW8       29.78R
LAWRENCEVILLE* CLOUDY    55  53  94 N5        29.71S
EMPORIA*       RAIN      52  50  93 CALM      29.73S
$$

VAZ088>098-061700-
SOUTHEAST VIRGINIA

CITY           SKY/WX    TMP DP  RH WIND       PRES   REMARKS
NORFOLK        LGT RAIN  54  49  83 W9        29.69R
VIRGINIA BEACH CLOUDY    58  49  72 W8        29.69R
NORFOLK NAVAL  LGT RAIN  54  50  86 W9        29.71R
WEST POINT*    CLOUDY    52  51  95 E5        29.71S
SALUDA*        CLOUDY    51  48  92 N7        29.69R
NEWPORT NEWS   LGT RAIN  53  51  93 VRB7      29.70R
LANGLEY AFB    LGT RAIN  53  51  92 W7        29.69S FOG
FORT EUSTIS    LGT RAIN  53  53  99 VRB3      29.69R
WILLIAMSBURG*  FAIR      54  54 100 W3        29.71S
HR EXEC AP*      N/A     54  52  94 NW3       29.72S
FRANKLIN*      LGT RAIN  52  49  89 W3        29.72S
US460-WAKEFLD  LGT RAIN  53  50  89 SW5       29.71R
$$

VAZ020-022-025-037-045-061700-
WEST CENTRAL AND SOUTHWEST VIRGINIA

CITY           SKY/WX    TMP DP  RH WIND       PRES   REMARKS
STAUNTON*      CLOUDY    58  49  69 N10       29.75F
WAYNESBORO*    CLOUDY    54  47  78 N7        29.74S
HOT SPRINGS VA CLOUDY    46  45  96 NW10      29.76S
LYNCHBURG      CLOUDY    57  50  77 VRB5      29.76S
DANVILLE       PTSUNNY   60  49  66 N14       29.76S
SOUTH BOSTON*  CLOUDY    56  55  95 N5        29.75S
MARTINSVILLE   CLOUDY    58  44  58 N8        29.80R
ROANOKE        CLOUDY    61  44  53 NW17      29.78F
BLACKSBURG     CLOUDY    54  44  67 NW17      29.84R
DUBLIN*        CLOUDY    54  44  70 NW14G23   29.84S
MARION*        CLOUDY    52  43  71 NW12G18   29.90R
HILLSVILLE*    CLOUDY    51  41  70 NW20G31   29.81R
RICHLANDS*     CLOUDY    50  34  53 N14G20    29.90F
WISE*          CLOUDY    52  39  62 N7        29.95R
ABINGDON*      CLOUDY    53  44  72 N7        29.92S
$$

MDZ021>025-VAZ099-100-061700-
SOUTHERN MARYLAND AND THE DELMARVA PENINSULA

CITY           SKY/WX    TMP DP  RH WIND       PRES   REMARKS
PATUXENT RIVER LGT RAIN  51  46  83 W6        29.67F FOG
BAY BRIDGE APT NOT AVBL
LEONARDTOWN    CLOUDY    48  46  93 W3        29.69F
DOVER          LGT RAIN  51  51 100 N9        29.63S
GEORGETOWN     CLOUDY    51  47  86 N6        29.65S
EASTON         LGT RAIN N/A N/A N/A CALM      29.70F
CAMBRIDGE      PTSUNNY   50  46  87 N5        29.66S
SALISBURY      LGT RAIN  50  46  86 SW3       29.66R
OCEAN CITY     RAIN      50  48  93 W5        29.67R FOG
WALLOPS ISLAND LGT RAIN  51  49  92 W5        29.68S FOG
ACCOMACK*      DRIZZLE  N/A N/A N/A CALM      29.68S
$$

NCZ012>017-030>032-061700-
NORTH CENTRAL AND EASTERN NORTH CAROLINA

CITY           SKY/WX    TMP DP  RH WIND       PRES   REMARKS
ROANOKE RAPIDS CLOUDY    55  50  82 CALM      29.72S
RALEIGH        PTSUNNY   60  49  66 VRB6G17   29.75R
ELIZABETH CITY LGT RAIN  56  50  80 W3        29.70R
AHOSKIE*       PTSUNNY   53  50  90 CALM      29.72S
EDENTON*       CLOUDY    57  57  99 CALM      29.71S
CURRITUCK*     CLOUDY    57  50  77 W5        29.71R
KILL DEVIL HLS LGT RAIN  60  53  78 E9        29.69S
MANTEO         DRIZZLE   56  55  95 S8        29.70S
CAPE HATTERAS  MOSUNNY   58  49  72 SW14      29.72R
TARBORO*       CLOUDY    58  52  79 NW5       29.73S
GOLDSBORO      MOSUNNY   61  54  77 NW10      29.72R
WASHINGTON     MOSUNNY   59  54  83 NW8       29.71S
GREENVILLE     CLOUDY    55  54  94 W3        29.76R
NEW BERN       LGT RAIN  56  50  80 W10       29.74S
WILMINGTON     PTSUNNY   61  48  62 NW9       29.76S
$$

VAZ048-061700-
ELSEWHERE

CITY           SKY/WX    TMP DP  RH WIND       PRES   REMARKS
HARRISBURG PA  RAIN      53  49  86 N6        29.69F FOG
BALTIMORE      LGT RAIN  50  48  93 NE7       29.68S FOG
ANNAPOLIS      LGT RAIN  50  47  89 N6        29.68S FOG
ANDREWS AFB    HVY RAIN  50  48  93 VRB5      29.67S FOG
PHILADELPHIA   LGT RAIN  51  46  83 NE10      29.68R
HENDERSON NC   MOSUNNY   61  53  75 N9G22     29.73S
GREENSBORO     PTSUNNY   61  48  62 N6        29.76S
ROCKY MOUNT    LGT RAIN  58  53  84 W6        29.73R
$$

VAZ100-061700-
MARINE

STATION/POSITION TIME  TEMP    WIND        PRES    WAVE   SWELL
                       AIR SEA DIR/SP/G            HT/PER HT/PER
                 (UTC) (F)     (DEG/KT/KT) (MB)    (FT/S) (FT/S)
BRANDYWINE LGT   1500   49      10/ 23/ 28 1001.7F
CAPE MAY NJ      1500   50 55   40/  8/ 14 1002.0F
LEWES DE         1500   50 54  360/ 13/ 16 1003.3F
15NM E FENWICK I 1550   50 51              1003.5R   8/ 8
OCEAN-CITY-INLET 1500   50 54   10/ 12/ 15 1002.9R
WACHAPREAGUE VA  1500   50 56  180/  4/  5 1004.6R
THOMAS POINT MD  1600   50 57   20/  8/  9 1006.1F
GOOSES REEF MD   1600   51 57   50/ 12/ 16 1005.8F   2/ 3
COVE POINT MD    1500   49     280/  6/  7 1005.1F
SOLOMONS ISLAND  1500   50 59  320/  1/  3   N/A
BISHOPS HEAD MD  1500   49 56  310/  6/  8 1003.8S
PINEY POINT MD   1500          360/  5/  6   N/A
POTOMAC MD       1600   50 58  300/  4/  6 1004.0R   1
CAMBRIDGE MD     1500   49 60   20/  6/  7 1004.0R
LEWISETTA VA     1500   51 60   CALM  /  1 1004.8R
RAPPAHANNOCK LGT 1500           CALM  /  2 1005.5R
STINGRAY PT      1600   51 61   50/  6/  6 1005.5R   1
YORK RVR RNG VA  1500   52     280/  4/  5 1004.5R
YORKTOWN VA      1500   52 62  280/  5/  6 1005.0R
JAMESTOWN VA     1600   53 66  240/  4/  8   N/A     0
DOMINION TERM VA 1500   53     280/ 10/ 12 1005.3R
KIPTOPEKE VA     1500      59  190/  5/  6   N/A
CHES BAY BRIDGE  1500   52 60  190/  7/  9 1004.9R
CAPE HENRY VA    1500   52      CALM  /  1   N/A
CHESAPEAKE LGHT  1500   51     270/  4/  5 1006.2R
WILLOUBY STN VA  1500   52     310/  4/  5 1006.2R
CAPE HENRY BUOY  1512      56                N/A     5/ 8
CAPE CHARLES BUO 1526      56                N/A     4/ 9   3/ 9
OFFSHORE WE BUOY 1521      55                N/A     5/ 8   5/ 8
64NM E OF VA BCH 1550   52 52  260/  6/  8 1005.5R   6/ 9   7/ 9
DUCK PIER NC     1500   59 59   90/  5/  6 1005.0R
44100 DUCK FRF   1524      57                N/A     5/ 8   2/12
44056 DUCK FRF   1511      60                N/A     5/ 8   2/11
OREGON INLET NC  1500   56 59  110/  9/ 12 1005.4R
DIAMOND SHLS NC  1550   60 75  240/ 17/ 25 1006.2R   6/ 9   3/ 9
CAPE LOOKOUT NC  1600   58     250/ 12/ 15 1006.5R
$$



USA.gov is the U.S. government's official web portal to all federal, state and local government web resources and services.